Starlink 5910

operational
NORAD ID: 56000 Int'l Des: 2023-042 Owner: SPXS Country: US Constellation: starlink
LEOCIRCULAR

关于 Starlink 5910

正在加载描述...

实时位置

正在加载3D地球...

即将过境

高度历史

Altitude vs Time

uPlot chart will show altitude changes over time

两行轨道根数

1 56000U 23042Q 25350.72466456 .00001480 00000-0 12461-3 0 9997
2 56000 43.0026 146.6292 0001309 265.6373 94.4320 15.02529254150433
Epoch: Dec 16, 2025 • Age: 12 hours

当前状态

高度 558.6 km
速度 7.58 km/s
星下点 2.70°N, 154.85°E
发射日期 Mar 24, 2023
运行时间 2.7 years
类型 internet

技术详情

分类 Payload
质量 305.00 kg
干质量 290.00 kg
总质量 305.00 kg
长度 0.20 m
直径 2.80 m
跨度 9.00 m
形状 Box + pan
制造商 SPXS
平台类型 Starlink
阶段状态 In Orbit
所有者/国家 SPXS/US

大型星座

Loading constellations...